Location: Gollag?dem
(16.8053°N, 80.8024°E)
Time: 10:15:39
(UTC+00:00)

Cosmos 1339 Rocket - Pass Details

Date: 13 August 2020
Orbit: 941 x 1006 km, 82.9° (Epoch: 18 September)

Event Time Altitude Azimuth Distance (km) Brightness Sun altitude
Rises 13:52:26 0° 358° (N) 3,690 7.8 -12.1°
Reaches altitude 10° 13:54:58 10° 359° (N) 2,732 7.1 -12.7°
Maximum altitude 14:01:14 79° 86° (E) 988 4.4 -14.1°
Drops below altitude 10° 14:07:22 10° 173° (S) 2,682 6.5 -15.5°
Sets 14:09:51 0° 174° (S) 3,619 7.2 -16.0°
